• In Russia
  • List of Countries
  • For 7 days
  • Water Temperature
  • Satellite Maps
  • Weather Map
  • Weather Widgets
  • user-avatar
    Login

    Hourly Weather Batina

    Today, 25 March, Monday

    Time Temperature Precipitation Wind Pressure Humidity
    00:00 +8°C° 0 mm 3 mps 673 mmHg 67%
    01:00 +7°C° 0 mm 3 mps 672 mmHg 69%
    02:00 +7°C° 0 mm 2 mps 672 mmHg 70%
    03:00 +7°C° 0 mm 2 mps 672 mmHg 71%
    04:00 +7°C° 0 mm 2 mps 672 mmHg 71%
    05:00 +7°C° 0 mm 2 mps 672 mmHg 71%
    06:00 +7°C° 0 mm 2 mps 672 mmHg 70%
    07:00 +9°C° 0 mm 2 mps 672 mmHg 63%
    08:00 +10°C° 0 mm 2 mps 672 mmHg 57%
    09:00 +13°C° 0 mm 2 mps 673 mmHg 50%
    10:00 +13°C° 0 mm 3 mps 673 mmHg 47%
    11:00 +14°C° 0 mm 3 mps 673 mmHg 44%
    12:00 +16°C° 0 mm 3 mps 673 mmHg 41%
    13:00 +15°C° 0 mm 4 mps 672 mmHg 41%
    14:00 +17°C° 0 mm 4 mps 672 mmHg 40%
    15:00 +16°C° 0 mm 5 mps 671 mmHg 40%
    16:00 +15°C° 0 mm 5 mps 671 mmHg 43%
    17:00 +14°C° 0 mm 4 mps 670 mmHg 46%
    18:00 +13°C° 0 mm 4 mps 670 mmHg 50%
    19:00 +12°C° 0 mm 3 mps 670 mmHg 53%
    20:00 +12°C° 0 mm 2 mps 670 mmHg 55%
    21:00 +12°C° 0 mm 1 mps 670 mmHg 58%
    22:00 +10°C° 0 mm 2 mps 670 mmHg 59%
    23:00 +10°C° 0 mm 2 mps 670 mmHg 59%

    Tomorrow, 26 March, Tuesday

    Time Temperature Precipitation Wind Pressure Humidity
    00:00 +10°C° 0 mm 2 mps 669 mmHg 60%
    01:00 +9°C° 0 mm 2 mps 669 mmHg 60%
    02:00 +9°C° 0 mm 2 mps 669 mmHg 61%
    03:00 +9°C° 0 mm 2 mps 669 mmHg 61%
    04:00 +9°C° 0 mm 2 mps 669 mmHg 62%
    05:00 +10°C° 0 mm 1 mps 669 mmHg 63%
    06:00 +9°C° 0 mm 1 mps 668 mmHg 64%
    07:00 +11°C° 0 mm 1 mps 669 mmHg 61%
    08:00 +12°C° 0 mm 2 mps 670 mmHg 58%
    09:00 +14°C° 0 mm 2 mps 670 mmHg 55%
    10:00 +14°C° 0.1 mm 2 mps 670 mmHg 55%
    11:00 +14°C° 0.1 mm 3 mps 671 mmHg 54%
    12:00 +15°C° 0.1 mm 4 mps 671 mmHg 54%
    13:00 +13°C° 1 mm 3 mps 670 mmHg 61%
    14:00 +12°C° 1 mm 3 mps 669 mmHg 68%
    15:00 +12°C° 1 mm 2 mps 669 mmHg 75%
    16:00 +10°C° 1.1 mm 2 mps 669 mmHg 80%
    17:00 +9°C° 1.1 mm 2 mps 669 mmHg 84%
    18:00 +9°C° 1.1 mm 2 mps 669 mmHg 88%
    19:00 +8°C° 1.7 mm 3 mps 669 mmHg 88%
    20:00 +7°C° 1.7 mm 3 mps 669 mmHg 89%
    21:00 +6°C° 1.7 mm 4 mps 670 mmHg 90%
    22:00 +5°C° 1 mm 4 mps 670 mmHg 89%
    23:00 +5°C° 1 mm 4 mps 669 mmHg 88%

    Day after tomorrow, 27 March, Wednesday

    Time Temperature Precipitation Wind Pressure Humidity
    00:00 +5°C° 1 mm 4 mps 669 mmHg 87%
    01:00 +4°C° 3.3 mm 4 mps 669 mmHg 88%
    02:00 +4°C° 3.3 mm 4 mps 669 mmHg 88%
    03:00 +3°C° 3.3 mm 4 mps 668 mmHg 88%
    04:00 +3°C° 2.5 mm 4 mps 668 mmHg 88%
    05:00 +3°C° 2.5 mm 4 mps 668 mmHg 88%
    06:00 +1°C° 2.5 mm 4 mps 668 mmHg 87%
    07:00 +1°C° 1.5 mm 4 mps 668 mmHg 88%
    08:00 +1°C° 1.5 mm 4 mps 669 mmHg 88%
    09:00 +1°C° 1.5 mm 4 mps 669 mmHg 89%
    10:00 +1°C° 0.8 mm 4 mps 669 mmHg 89%
    11:00 +3°C° 0.8 mm 3 mps 669 mmHg 89%
    12:00 +3°C° 0.8 mm 3 mps 669 mmHg 89%
    13:00 +3°C° 0.3 mm 3 mps 669 mmHg 88%
    14:00 +4°C° 0.3 mm 3 mps 668 mmHg 88%
    15:00 +4°C° 0.3 mm 3 mps 668 mmHg 87%
    16:00 +4°C° 0 mm 3 mps 668 mmHg 87%
    17:00 +3°C° 0 mm 3 mps 668 mmHg 86%
    18:00 +3°C° 0 mm 3 mps 668 mmHg 86%
    19:00 +3°C° 0 mm 3 mps 669 mmHg 87%
    20:00 +3°C° 0 mm 3 mps 669 mmHg 88%
    21:00 +3°C° 0 mm 3 mps 670 mmHg 89%
    22:00 +3°C° 0 mm 3 mps 670 mmHg 91%
    23:00 +3°C° 0 mm 3 mps 670 mmHg 93%

    28 March, Thursday

    Time Temperature Precipitation Wind Pressure Humidity
    00:00 +3°C° 0 mm 3 mps 670 mmHg 96%
    01:00 +3°C° 0 mm 3 mps 670 mmHg 95%
    02:00 +3°C° 0 mm 3 mps 670 mmHg 95%
    03:00 +3°C° 0 mm 3 mps 670 mmHg 95%
    04:00 +3°C° 0.1 mm 3 mps 670 mmHg 95%
    05:00 +3°C° 0.1 mm 3 mps 670 mmHg 94%
    06:00 +3°C° 0.1 mm 3 mps 670 mmHg 94%
    07:00 +3°C° 0 mm 3 mps 670 mmHg 92%
    08:00 +4°C° 0 mm 3 mps 671 mmHg 90%
    09:00 +5°C° 0 mm 3 mps 671 mmHg 87%
    10:00 +5°C° 0 mm 3 mps 672 mmHg 84%
    11:00 +7°C° 0 mm 3 mps 672 mmHg 81%
    12:00 +7°C° 0 mm 4 mps 672 mmHg 78%
    13:00 +7°C° 0 mm 4 mps 672 mmHg 75%
    14:00 +9°C° 0 mm 3 mps 672 mmHg 72%
    15:00 +10°C° 0 mm 3 mps 672 mmHg 69%
    16:00 +9°C° 0.1 mm 3 mps 672 mmHg 74%
    17:00 +7°C° 0.1 mm 4 mps 672 mmHg 79%
    18:00 +6°C° 0.1 mm 4 mps 672 mmHg 84%
    19:00 +7°C° 0 mm 3 mps 672 mmHg 87%
    20:00 +5°C° 0 mm 3 mps 673 mmHg 89%
    21:00 +6°C° 0 mm 2 mps 673 mmHg 92%
    22:00 +5°C° 0 mm 2 mps 673 mmHg 93%
    23:00 +5°C° 0 mm 2 mps 673 mmHg 93%

    29 March, Friday

    Time Temperature Precipitation Wind Pressure Humidity
    00:00 +5°C° 0 mm 2 mps 673 mmHg 94%
    01:00 +5°C° 0 mm 2 mps 673 mmHg 94%
    02:00 +4°C° 0 mm 2 mps 673 mmHg 95%
    03:00 +5°C° 0 mm 1 mps 672 mmHg 95%
    04:00 +5°C° 0 mm 1 mps 673 mmHg 94%
    05:00 +5°C° 0 mm 1 mps 673 mmHg 94%
    06:00 +5°C° 0 mm 1 mps 673 mmHg 93%
    07:00 +6°C° 0 mm 1 mps 674 mmHg 86%
    08:00 +8°C° 0 mm 1 mps 674 mmHg 78%
    09:00 +9°C° 0 mm 1 mps 675 mmHg 70%
    10:00 +10°C° 0 mm 1 mps 675 mmHg 64%
    11:00 +11°C° 0 mm 1 mps 675 mmHg 59%
    12:00 +12°C° 0 mm 1 mps 675 mmHg 53%
    13:00 +12°C° 0 mm 2 mps 675 mmHg 50%
    14:00 +13°C° 0 mm 2 mps 675 mmHg 48%
    15:00 +13°C° 0 mm 2 mps 674 mmHg 46%
    16:00 +12°C° 0 mm 2 mps 674 mmHg 48%
    17:00 +10°C° 0 mm 2 mps 674 mmHg 51%
    18:00 +9°C° 0 mm 2 mps 674 mmHg 54%
    19:00 +9°C° 0 mm 2 mps 674 mmHg 62%
    20:00 +8°C° 0 mm 2 mps 674 mmHg 69%
    21:00 +8°C° 0 mm 1 mps 675 mmHg 77%
    22:00 +7°C° 0 mm 1 mps 674 mmHg 79%
    23:00 +7°C° 0 mm 1 mps 674 mmHg 82%

    30 March, Saturday

    Time Temperature Precipitation Wind Pressure Humidity
    00:00 +5°C° 0 mm 0 mps 674 mmHg 85%
    01:00 +6°C° 0 mm 1 mps 674 mmHg 84%
    02:00 +6°C° 0 mm 1 mps 674 mmHg 84%
    03:00 +6°C° 0 mm 1 mps 674 mmHg 83%
    04:00 +6°C° 0 mm 1 mps 674 mmHg 82%
    05:00 +7°C° 0 mm 1 mps 674 mmHg 81%
    06:00 +6°C° 0 mm 2 mps 674 mmHg 80%
    07:00 +8°C° 0 mm 2 mps 675 mmHg 71%
    08:00 +9°C° 0 mm 2 mps 675 mmHg 62%
    09:00 +11°C° 0 mm 3 mps 676 mmHg 53%
    10:00 +12°C° 0 mm 3 mps 676 mmHg 50%
    11:00 +14°C° 0 mm 2 mps 676 mmHg 47%
    12:00 +14°C° 0 mm 2 mps 675 mmHg 45%
    13:00 +14°C° 0 mm 2 mps 675 mmHg 45%
    14:00 +15°C° 0 mm 2 mps 674 mmHg 46%
    15:00 +15°C° 0 mm 2 mps 674 mmHg 46%
    16:00 +14°C° 0 mm 2 mps 674 mmHg 50%
    17:00 +12°C° 0 mm 3 mps 674 mmHg 53%
    18:00 +12°C° 0 mm 3 mps 673 mmHg 57%
    19:00 +11°C° 0 mm 3 mps 673 mmHg 59%
    20:00 +10°C° 0 mm 3 mps 673 mmHg 62%
    21:00 +10°C° 0 mm 2 mps 674 mmHg 65%
    22:00 +9°C° 0 mm 2 mps 673 mmHg 67%
    23:00 +9°C° 0 mm 2 mps 673 mmHg 68%
    Show more